Weather History for KPKD - January, 2013

Change the Weather History Date:

Friday, January 18, 2013

  Actual Average Record
Temperature  
Mean Temperature 16 °F -  
Max Temperature 26 °F 17 °F 43 °F (1981)
Min Temperature 6 °F -4 °F -37 °F (1950)
Degree Days  
Heating Degree Days 49    
Moisture  
Dew Point 12 °F    
Average Humidity 83    
Maximum Humidity 93    
Minimum Humidity 69    
Precipitation  
Precipitation 0.03 in - - ()
Sea Level Pressure  
Sea Level Pressure 29.87 in    
Wind  
Wind Speed 6 mph (SSE)    
Max Wind Speed 13 mph    
Max Gust Speed -    
Visibility 8 miles    
Events Snow    
Averages and records for this station are not official NWS values.
T = Trace of Precipitation, MM = Missing Value Source: NWS Daily Summary

Daily Weather History Graph

Daily Weather History Graph

Search for Another Location

Airport or City:

Trip Planner

Search our weather history database for the weather conditions in past years. The results will help you decide how hot, cold, wet, or windy it might be!

Date:

Astronomy

Jan. 18, 2013 Rise Set
Actual Time 7:58 AM CST 5:03 PM CST
Civil Twilight 7:25 AM CST 5:36 PM CST
Nautical Twilight 6:47 AM CST 6:14 PM CST
Astronomical Twilight 6:11 AM CST 6:50 PM CST
Moon 11:06 AM CST (1/18) 12:24 AM CST (1/18)
Length of Visible Light 10h 11m
Length of Day
9h 04m
Waxing Crescent, 47% of the Moon is Illuminated
Jan 18
Waxing Crescent
Jan 18
First Quarter
Jan 26
Full
Feb 3
Last Quarter
Feb 10
New

Hourly Weather History & Observations

Time (CST) Temp. Windchill Dew Point Humidity Pressure Visibility Wind Dir Wind Speed Gust Speed Precip Events Conditions
12:53 AM 7.0 °F -3.3 °F 1.0 °F 77% 30.21 in 4.0 mi SE 5.8 mph - 0.00 in Snow Light Snow
1:02 AM 6.8 °F -4.8 °F 1.4 °F 79% 30.10 in 2.5 mi SE 6.9 mph - 0.00 in Snow Light Snow
1:12 AM 6.8 °F -4.8 °F 1.4 °F 79% 30.09 in 1.5 mi SE 6.9 mph - 0.00 in Snow Light Snow
1:53 AM 7.0 °F -4.5 °F 3.0 °F 84% 30.18 in 1.5 mi SE 6.9 mph - 0.02 in Snow Light Snow
2:33 AM 8.6 °F -5.5 °F 3.2 °F 79% 30.01 in 2.0 mi ESE 10.4 mph - 0.01 in Snow Light Snow
2:48 AM 8.6 °F -5.5 °F 3.2 °F 79% 29.99 in 4.0 mi SE 10.4 mph - 0.01 in Snow Light Snow
2:53 AM 9.0 °F -5.9 °F 5.0 °F 84% 30.09 in 3.0 mi SE 11.5 mph - 0.01 in Snow Light Snow
3:01 AM 8.6 °F -4.7 °F 5.0 °F 85% 29.97 in 5.0 mi SE 9.2 mph - 0.00 in Snow Light Snow
3:53 AM 10.9 °F -1.8 °F 7.0 °F 84% 30.05 in 10.0 mi SE 9.2 mph - 0.00 in   Overcast
4:53 AM 10.9 °F -4.1 °F 7.0 °F 84% 29.99 in 10.0 mi SE 12.7 mph - N/A   Overcast
5:53 AM 12.0 °F -0.4 °F 8.1 °F 84% 29.96 in 10.0 mi SE 9.2 mph - N/A   Overcast
6:53 AM 12.9 °F 0.7 °F 9.0 °F 84% 29.92 in 10.0 mi SE 9.2 mph - N/A   Overcast
7:27 AM 12.2 °F -0.2 °F 8.6 °F 85% 29.79 in 10.0 mi SE 9.2 mph - N/A   Overcast
7:53 AM 12.9 °F 2.6 °F 10.0 °F 88% 29.88 in 10.0 mi SE 6.9 mph - N/A   Overcast
8:17 AM 14.0 °F 2.0 °F 10.4 °F 86% 29.78 in 10.0 mi SSE 9.2 mph - N/A   Overcast
8:47 AM 15.8 °F 6.1 °F 10.4 °F 79% 29.77 in 9.0 mi SE 6.9 mph - N/A   Overcast
8:53 AM 15.1 °F 4.2 °F 10.9 °F 84% 29.88 in 10.0 mi SSE 8.1 mph - N/A   Overcast
9:11 AM 15.8 °F 10.2 °F 10.4 °F 79% 29.77 in 8.0 mi SSE 3.5 mph - N/A   Overcast
9:53 AM 16.0 °F 6.3 °F 10.9 °F 81% 29.86 in 10.0 mi SE 6.9 mph - N/A   Overcast
10:53 AM 18.0 °F 9.8 °F 12.9 °F 81% 29.83 in 10.0 mi SSE 5.8 mph - N/A   Overcast
11:53 AM 19.9 °F - 14.0 °F 78% 29.80 in 10.0 mi Calm Calm - N/A   Overcast
12:53 PM 21.0 °F - 15.1 °F 78% 29.79 in 10.0 mi Calm Calm - N/A   Overcast
1:53 PM 24.1 °F - 17.1 °F 75% 29.77 in 10.0 mi Calm Calm - N/A   Overcast
2:53 PM 23.0 °F - 17.1 °F 78% 29.77 in 10.0 mi Calm Calm - N/A   Overcast
3:53 PM 26.1 °F 21.9 °F 17.1 °F 69% 29.77 in 10.0 mi NNW 3.5 mph - N/A   Clear
4:53 PM 21.0 °F - 16.0 °F 81% 29.79 in 10.0 mi Calm Calm - N/A   Partly Cloudy
5:53 PM 17.1 °F - 14.0 °F 88% 29.80 in 10.0 mi Calm Calm - N/A   Clear
6:53 PM 18.0 °F - 14.0 °F 84% 29.79 in 9.0 mi Calm Calm - N/A   Overcast
7:53 PM 17.1 °F - 14.0 °F 88% 29.80 in 9.0 mi Calm Calm - N/A   Mostly Cloudy
8:53 PM 21.0 °F - 17.1 °F 85% 29.79 in 9.0 mi Calm Calm - N/A   Overcast
9:53 PM 24.1 °F 19.7 °F 21.0 °F 88% 29.78 in 7.0 mi West 3.5 mph - N/A   Overcast
10:25 PM 23.0 °F 17.0 °F 19.4 °F 86% 29.70 in 5.0 mi NW 4.6 mph - 0.00 in Snow Light Snow
10:53 PM 23.0 °F 18.4 °F 19.0 °F 85% 29.77 in 6.0 mi SW 3.5 mph - 0.00 in   Overcast
11:02 PM 21.2 °F 16.4 °F 19.4 °F 93% 29.70 in 6.0 mi WSW 3.5 mph - N/A   Overcast
11:10 PM 21.2 °F 14.9 °F 17.6 °F 86% 29.70 in 6.0 mi WSW 4.6 mph - N/A   Overcast
11:44 PM 21.2 °F 13.6 °F 19.4 °F 93% 29.68 in 6.0 mi South 5.8 mph - N/A   Scattered Clouds
11:53 PM 21.0 °F 12.4 °F 18.0 °F 88% 29.75 in 6.0 mi South 6.9 mph - N/A   Scattered Clouds